Location: Lake_James_State_Park
(35.7270°N, 81.9020°W)
Time: 16:25:21
(UTC-04:00)

Daily predictions for brighter satellites

Satellite Brightness Start Highest point End
(mag) Time Altitude Azimuth Time Altitude Azimuth Time Altitude Azimuth
Meteor 1-20 Rocket 4.3 20:26:55 10° S 20:32:24 59° E 20:37:48 10° NNE
Cosmos 1441 Rocket 3.5 20:32:35 10° N 20:36:10 45° E 20:39:45 10° SSE
Lacrosse 5 rocket 2.9 20:33:50 10° N 20:36:29 18° NE 20:39:13 10° E
ALOS 3.3 20:32:33 10° S 20:37:04 52° W 20:41:39 10° NNW
Cosmos 2056 Rocket 3.9 20:33:14 10° SSW 20:38:19 72° WNW 20:43:31 10° NNE
USA 267 3.4 20:32:13 10° SE 20:38:46 79° SW 20:45:22 10° NW
Sich 1 Rocket 4.1 20:34:37 10° SSW 20:38:57 65° W 20:43:20 10° N
Cosmos 1975 Rocket 3.3 20:35:04 10° N 20:39:25 49° E 20:43:42 10° SSE
Helios 1B rocket 4.4 20:39:17 10° E 20:39:34 10° E 20:39:51 10° E
Cosmos 405 Rocket 2.7 20:37:30 10° N 20:41:21 90° SSE 20:45:16 10° S
CZ-4C R/B 3.2 20:35:26 10° NNW 20:42:51 83° WSW 20:50:55 10° SSE
FengYun 1-2 T 4.5 20:38:41 10° S 20:44:18 82° WSW 20:50:00 10° NNW
Cosmos 2026 Rocket 4.1 20:38:56 10° S 20:45:09 65° E 20:51:27 10° NNE
EXPRESS MD2 2.4 20:44:39 10° SW 20:46:52 79° NW 20:50:12 10° NE
Cosmos 1655 Rocket 4.2 20:44:06 10° SSE 20:50:07 52° E 20:56:13 10° NNE
GPS 2-05 Rocket1 2.7 20:47:07 10° WSW 20:50:30 76° S 20:53:48 10° E
Cosmos 2227 Rocket 4.1 20:49:42 10° NW 20:54:34 30° WSW 20:59:26 10° SSW
Cosmos 1633 2.5 20:52:47 10° S 20:56:21 69° E 20:59:58 10° NNE
Cosmos 2360 Rocket 3.8 20:56:27 11° ESE 20:57:38 12° E 20:59:40 10° ENE
Cosmos 1980 Rocket 2.5 20:52:33 10° SSW 20:58:09 71° WNW 21:03:46 10° NNE
Cosmos 839 Rocket 4.0 20:52:06 10° SSW 20:58:30 75° ESE 21:04:40 10° NNE
YAOGAN 6 4.3 20:57:34 13° ESE 20:59:16 17° ENE 21:01:34 10° NNE
ATLAS 2AS CENTAUR R/B 3.7 20:54:07 10° SSE 21:00:25 30° ESE 21:07:04 10° NE
Cosmos 1452 Rocket 3.5 20:56:58 10° S 21:02:13 73° ESE 21:07:30 10° NNE
USA 186 1.8 21:01:25 10° SSE 21:04:41 63° ENE 21:08:02 10° N
CZ-2D R/B 3.3 21:01:33 10° S 21:05:25 82° W 21:09:17 10° NNW
Cosmos 1420 Rocket 4.1 21:01:31 10° S 21:06:31 53° ESE 21:11:33 10° NNE
NOSS 3-1 (A) 4.3 21:01:49 10° SW 21:07:20 51° NW 21:13:31 10° NNE
NOSS 2-3 (E) 4.2 21:07:10 10° S 21:11:24 38° ESE 21:16:04 10° NE
Cosmos 407 Rocket 3.7 21:06:04 10° NNW 21:11:25 77° WSW 21:16:42 10° S
Okean 2 Rocket 3.5 21:07:37 10° SSW 21:12:04 67° W 21:16:34 10° N
Atlas Centaur 2 3.0 21:05:05 10° WSW 21:13:09 58° S 21:18:37 17° ESE
Helios 1A 4.1 21:11:48 18° ESE 21:13:58 26° ENE 21:17:32 10° NNE
Cosmos 1190 Rocket 4.4 21:08:58 10° NNW 21:14:10 65° WSW 21:19:24 10° S
Cosmos 44 Rocket 3.3 21:13:07 10° NNW 21:17:50 63° ENE 21:21:13 19° SE
Resurs 1-3 4.2 21:24:22 10° S 21:28:40 57° W 21:33:00 10° NNW
BREEZE-M DEB (TANK) 3.8 21:26:11 10° WSW 21:29:58 29° NW 21:31:59 10° NNE
Cosmos 676 Rocket 4.1 21:25:10 10° NNW 21:30:30 79° WSW 21:35:26 12° S
Cosmos 2227 4.1 21:26:59 10° NNW 21:32:40 87° ENE 21:36:59 18° SSE
DELTA 2 R/B (1) 3.6 21:28:29 10° WNW 21:34:07 88° NNE 21:37:20 27° ESE
Uosat 12 SS-18 rocket 4.3 21:30:01 10° SSW 21:34:37 90° ESE 21:40:14 10° NNE
Cosmos 1023 Rocket 4.4 21:30:58 10° NNW 21:36:15 81° ENE 21:39:52 21° SSE
Meteor 1-11 Rocket 3.7 21:32:18 10° S 21:38:11 83° E 21:43:58 10° N
SeaSat 1 3.3 21:33:35 10° NNE 21:38:22 53° WNW 21:43:09 10° SW
Spot 2 Rocket 4.3 21:35:53 10° S 21:40:50 51° W 21:45:48 10° NNW
Delta 2 Rocket 4.1 21:37:18 10° SW 21:41:12 36° SSE 21:41:54 34° SE
NOSS 2-3 (C) 3.7 21:40:20 10° SSW 21:44:54 82° ESE 21:50:07 10° NNE
Cosmos 1140 Rocket 3.5 21:41:24 10° NNW 21:46:39 82° WSW 21:50:01 23° S
SPOT 5 4.4 21:46:37 20° ENE 21:46:52 20° ENE 21:50:20 10° NNE
SAR-Lupe-4 4.4 21:52:24 34° ENE 21:52:24 34° ENE 21:55:19 10° N
Lacrosse 5 1.8 21:47:31 10° SSW 21:52:29 59° SE 21:57:28 10° NE
Cosmos 614 Rocket 4.0 21:49:33 10° NNW 21:54:40 81° WSW 21:57:22 29° S
S3M 4.2 21:49:27 10° N 21:55:42 72° W 22:01:48 11° S
Resurs 01 Rocket 3.8 21:53:46 10° SSW 21:57:24 24° W 22:01:03 10° NW
Cosmos 1553 Rocket 4.4 21:52:42 10° NNW 21:58:45 61° W 22:04:42 10° S
Cosmos 1939 Rocket 3.6 21:57:18 21° SSW 21:59:42 49° W 22:03:34 10° NNW
Okean 1 Rocket 2.9 21:58:31 44° SSE 21:59:46 71° E 22:04:08 10° NNE
Meteor 1-29 2.8 21:57:28 10° NNE 22:00:43 78° NE 22:00:43 78° NE
H-2A R/B 3.3 22:00:55 24° ENE 22:00:55 24° ENE 22:04:50 10° NNE
Cosmos 2315 Rocket 4.3 21:56:03 10° N 22:02:04 47° E 22:03:43 39° ESE
Cosmos 2266 Rocket 3.8 21:56:24 10° S 22:02:28 90° WNW 22:08:31 10° N
GENESIS II 4.0 21:58:48 10° NNW 22:02:44 73° ENE 22:02:54 71° E
Okean 1-7 Rocket 4.3 22:00:53 10° N 22:04:41 37° ENE 22:04:41 37° ENE
Cosmos 44 3.9 22:00:49 10° NW 22:05:05 46° WSW 22:06:54 30° SSW
ARGOS 3.6 22:04:28 39° E 22:05:13 41° ENE 22:10:12 10° N
Cosmos 2322 Rocket 2.9 22:00:39 10° SW 22:06:14 56° WNW 22:11:51 10° NNE
Cosmos 1300 Rocket 4.0 22:03:00 14° SSW 22:06:39 60° W 22:10:55 10° N
Cosmos 1741 Rocket 3.9 22:01:28 10° NNW 22:06:43 80° ENE 22:08:13 48° SSE
Cosmos 1607 4.4 22:00:47 10° NNW 22:07:00 47° NE 22:08:50 38° E
ERS-1 Rocket 3.0 22:06:16 50° ESE 22:07:15 60° ENE 22:12:13 10° N
Nadezhda 2 Rocket 4.5 22:05:18 37° SSE 22:07:30 57° E 22:13:33 10° NNE
Meteor 1-23 Rocket 4.1 22:03:22 10° N 22:08:56 72° E 22:10:35 46° SSE
Cosmos 1536 3.5 22:06:18 18° SSW 22:09:08 55° W 22:13:09 10° N
Envisat 4.5 22:05:23 10° SSW 22:09:56 34° W 22:14:32 10° NNW
Cosmos 2263 Rocket 2.2 22:04:57 10° NNW 22:10:38 65° ENE 22:11:56 50° ESE
Tiangong 1 3.2 22:08:53 10° NW 22:10:33 20° N 22:10:33 20° N
Helios 1B rocket 3.2 22:11:09 10° N 22:15:08 51° WNW 22:18:03 17° SW
Lacrosse 5 rocket 2.0 22:12:13 10° NW 22:15:47 42° SW 22:15:50 42° SW
SL-16 R/B 3.2 22:10:52 10° SW 22:16:16 46° WNW 22:21:44 10° N
CZ-4B DEB 4.4 22:18:26 29° NNW 22:18:26 29° NNW 22:20:04 10° NNW
Cosmos 1025 Rocket 3.4 22:15:50 10° N 22:19:22 52° NE 22:19:22 52° NE
ATLAS 3B R/B 3.4 22:16:29 10° NNW 22:22:32 34° NE 22:23:52 32° ENE
Cosmos 2322 3.6 22:24:06 63° ESE 22:24:22 64° ESE 22:29:58 10° NNE
Cosmos 220 Rocket 4.4 22:21:43 10° N 22:25:17 54° NNE 22:25:17 54° NNE
OAO 1 Rocket 4.3 22:21:05 10° WSW 22:26:22 70° S 22:26:22 70° S
USA 245 4.1 22:27:22 60° ENE 22:27:22 60° ENE 22:32:02 10° N
COSMOS 2428 4.2 22:35:04 22° NE 22:35:04 22° NE 22:37:20 10° NE
Cosmos 1110 Rocket 4.1 22:37:25 50° SW 22:38:44 72° WNW 22:43:54 10° NNE
Cosmos 2360 Rocket 2.3 22:37:59 30° SSW 22:40:52 74° WNW 22:46:31 10° NNE
MetOp-B 4.1 22:40:47 69° SSW 22:41:17 75° WSW 22:46:39 10° NNW
Cosmos 1932 4.3 22:35:59 10° NNW 22:42:29 75° ENE 22:43:03 70° ESE
Terra 3.6 22:45:43 21° NE 22:45:43 21° NE 22:47:53 10° NNE
SL-08 RB Rocket 4.3 22:51:31 53° NNW 22:51:31 53° NNW 22:55:00 10° NNW
ATLAS 2AS CENTAUR R/B 3.6 22:43:28 10° SW 22:50:57 57° NW 22:58:56 10° NNE
Cosmos 1331 Rocket 4.4 22:54:05 53° WSW 22:54:47 57° WNW 22:59:55 10° N
SPOT 1/Viking Rocket 4.0 23:02:52 59° N 23:02:52 59° N 23:07:05 10° NNW
Atlas Centaur 2 3.2 22:55:13 10° W 23:01:14 43° SW 23:01:14 43° SW
Cosmos 1238 Rocket 4.1 23:07:10 10° N 23:13:45 78° WNW 23:13:45 78° WNW
Aureole 3 Rocket 4.3 23:12:48 10° N 23:21:16 74° W 23:21:30 74° WSW
SPOT 5 4.3 23:25:52 33° WNW 23:25:52 33° WNW 23:29:10 10° NNW
Nadezhda 1 Rocket 4.5 23:18:36 10° N 23:23:30 54° NNE 23:23:30 54° NNE
Lacrosse 5 4.0 23:31:43 10° W 23:35:46 23° NW 23:39:49 10° NNE
H-2A R/B 3.7 23:41:34 29° WNW 23:41:34 29° WNW 23:44:41 10° NNW
NOSS 3-2 (A) 4.3 23:43:34 10° NNW 23:50:24 61° NNE 23:50:24 61° NNE
USA 238 DEB 4.1 23:44:05 10° NW 23:49:51 60° WNW 23:49:51 60° WNW
USA 238 4.1 23:44:10 10° NW 23:49:57 60° WNW 23:49:57 60° WNW
Cosmos 2278 Rocket 3.9 23:46:45 10° N 23:49:36 25° NNE 23:49:36 25° NNE
